Regional Weather Roundup
Issued by NWS

Home | Current Version | Previous Version | Text Only | Print | Product List | Glossary On
Versions: 1 2 3 4 5 6 7 8 9 10 11 12 13 14 15 16 17 18 19 20 21 22 23 24 25 26 27 28 29 30 31 32 33 34 35 36 37 38 39 40 41 42 43 44 45 46 47 48 49 50
000
ASUS46 KSTO 222215
RWRCA

NORTHERN AND CENTRAL CA REGIONAL WEATHER ROUNDUP
NATIONAL WEATHER SERVICE SACRAMENTO CA
200 PM PST SUN JAN 22 2017

NOTE: FAIR INDICATES FEW OR NO CLOUDS BELOW 12,000 FEET WITH NO
SIGNIFICANT WEATHER AND/OR OBSTRUCTIONS TO VISIBILITY.

CAZ001-003-222300-
NORTHWEST AREA

CITY           SKY/WX    TMP DP  RH WIND       PRES   REMARKS
CRESCENT CITY  RAIN      44  37  76 SW25G35   29.58R
UKIAH          LGT RAIN  49  39  68 SE10      29.64F
$$

CAZ006-505>513-222300-
BAY AREA

CITY           SKY/WX    TMP DP  RH WIND       PRES   REMARKS
SANTA ROSA     CLOUDY    54  39  57 S6        29.64F
SAN RAFAEL     N/A       56  MM  MM MISG
NAPA           CLOUDY    57  46  66 S10       29.67F
CONCORD        PTSUNNY   57  41  55 SW7       29.67F
OAKLAND CITY   N/A      MM  MM  MM MISG
OAKLAND        LGT RAIN  55  46  71 S9G18     29.68F
SAN FRAN CITY  N/A       55  MM  58 MISG
SAN FRAN ARPT  LGT RAIN  53  42  66 S13       29.68F
LIVERMORE      LGT RAIN  51  44  77 S10G25    29.68F
HAYWARD        CLOUDY    56  46  69 SE14      29.68F
REDWOOD CITY   N/A       56  MM  70 MISG
MOFFETT ARPT   LGT RAIN  51  46  83 S8        29.70F
SAN JOSE ARPT  CLOUDY    52  47  83 SE8       29.70F
$$
CAZ034-037-514>518-222300-
CENTRAL COAST

CITY           SKY/WX    TMP DP  RH WIND       PRES   REMARKS
WATSONVILLE    CLOUDY    53  50  89 CALM      29.72F
SALINAS        RAIN      56  50  80 SE8       29.71F
MONTEREY       CLOUDY    56  46  69 S9G21     29.71F
SAN LUIS OBISP CLOUDY    59  53  80 S17       29.79F
SANTA MARIA    LGT RAIN  57  53  86 S15       29.80F
$$
CAZ015-016-222300-
NORTHERN SACRAMENTO VALLEY

CITY           SKY/WX    TMP DP  RH WIND       PRES   REMARKS
REDDING        CLOUDY    51  43  74 S21       29.61F
RED BLUFF      CLOUDY    53  43  68 S18       29.64F
OROVILLE       PTSUNNY   54  44  69 S12       29.69F
$$
CAZ016>018-222300-
SOUTHERN SACRAMENTO VALLEY

CITY           SKY/WX    TMP DP  RH WIND       PRES   REMARKS
AUBURN         PTSUNNY   50  43  76 S10       29.69F
BEALE AFB      CLOUDY    54  46  72 S12       29.66F
LINCOLN        FAIR      54  43  66 S8        29.68F
MARYSVILLE     PTSUNNY   54  46  74 S13       29.68F
SAC INTL ARPT  LGT RAIN  49  45  86 W3        29.67F
MATHER AIRPORT PTSUNNY   55  46  71 S13       29.69F
DOWNTOWN SAC   N/A       57  MM  MM MISG
SAC EXEC ARPT  MOSUNNY   56  47  71 SE9       29.67F
VACAVILLE      MOSUNNY   56  44  64 SW12      29.68F
TRAVIS AFB     MOSUNNY   56  46  67 SW14      29.66F
$$
CAZ019>021-222300-
SAN JOAQUIN VALLEY

CITY           SKY/WX    TMP DP  RH WIND       PRES   REMARKS
STOCKTON       CLOUDY    55  50  83 SE17      29.67F
MODESTO        CLOUDY    56  47  71 S10G21    29.70F
MERCED         CLOUDY    54  50  86 SE13      29.72F
LEMOORE        LGT RAIN  54  51  90 SE9       29.78F
FRESNO         LGT RAIN  53  50  89 SE14      29.78F FOG
HANFORD        LGT RAIN  56  52  86 CALM      29.78F FOG
PORTERVILLE    LGT RAIN  54  52  93 E17       29.80F
BAKERSFIELD    LGT RAIN  57  46  66 S10       29.80R
$$
CAZ011-012-071-222300-
NORTHERN MOUNTAINS

CITY           SKY/WX    TMP DP  RH WIND       PRES   REMARKS
YREKA          CLOUDY    43  27  53 S15       29.55F
MOUNT SHASTA   CLOUDY    35  31  85 E5        29.56F WCI  31
ALTURAS        SUNNY     37  26  64 W7        29.58F WCI  32
$$
CAZ011-012-071-222300-
SIERRA NEVADA MTNS

CITY           SKY/WX    TMP DP  RH WIND       PRES   REMARKS
TRUCKEE        LGT SNOW  28  27  93 W3        29.61F VSB 1
TAHOE VLY ARPT LGT SNOW  32  26  78 SW9G18    29.58F VSB 3/4 WCI  24
MAMMOTH LAKES  CLOUDY    29  26  89 E22G31    29.60F FOG     WCI  15
$$



USA.gov is the U.S. government's official web portal to all federal, state and local government web resources and services.